Slayton, MN

10:50 PM CDT on October 19, 2017 (GMT -0500)
Slayton

Weather History for KDVP - March, 2013

Change the Weather History Date:

Sunday, March 31, 2013

  Actual Average (KOTG) Record (KOTG)
Temperature  
Mean Temperature 28 °F -  
Max Temperature 35 °F 45 °F 79 °F (1978)
Min Temperature 22 °F 28 °F 5 °F (1975)
Degree Days  
Heating Degree Days 36    
Moisture  
Dew Point 24 °F    
Average Humidity 79    
Maximum Humidity 100    
Minimum Humidity 47    
Precipitation  
Precipitation 0.00 in - - ()
Sea Level Pressure  
Sea Level Pressure 29.99 in    
Wind  
Wind Speed 15 mph (NW)    
Max Wind Speed 24 mph    
Max Gust Speed 31 mph    
Visibility 9 miles    
Events Fog    
Averages and records for this station are not official NWS values.
T = Trace of Precipitation, MM = Missing Value Source: NWS Daily Summary

Daily Weather History Graph

Daily Weather History Graph

Search for Another Location

Airport or City:

Trip Planner

Search our weather history database for the weather conditions in past years. The results will help you decide how hot, cold, wet, or windy it might be!

Date:

Astronomy

Mar. 31, 2013 Rise Set
Actual Time 7:05 AM CDT 7:49 PM CDT
Civil Twilight 6:36 AM CDT 8:18 PM CDT
Nautical Twilight 6:02 AM CDT 8:53 PM CDT
Astronomical Twilight 5:26 AM CDT 9:29 PM CDT
Moon 12:04 AM CDT (3/31) 9:45 AM CDT (3/31)
Length of Visible Light 13h 41m
Length of Day
12h 43m
Waning Gibbous, 77% of the Moon is Illuminated
Mar 31
Waning Gibbous
Apr 2
Last Quarter
Apr 10
New
Apr 18
First Quarter
Apr 25
Full

Hourly Weather History & Observations

Time (CDT) Temp. Windchill Dew Point Humidity Pressure Visibility Wind Dir Wind Speed Gust Speed Precip Events Conditions
12:14 AM 32.0 °F 26.4 °F 32.0 °F 100% 29.92 in 0.2 mi West 5.8 mph - N/A Fog Fog
12:35 AM 32.0 °F 23.6 °F 32.0 °F 100% 29.93 in 0.2 mi West 10.4 mph - N/A Fog Fog
12:55 AM 32.0 °F 24.2 °F 32.0 °F 100% 29.94 in 0.8 mi WNW 9.2 mph - N/A   Overcast
1:15 AM 32.2 °F 20.7 °F 32.4 °F 100% 29.94 in 4.0 mi NW 18.4 mph 23.0 mph N/A   Overcast
1:35 AM 32.4 °F 21.7 °F 32.5 °F 100% 29.93 in 1.8 mi WNW 16.1 mph - N/A   Overcast
1:55 AM 32.4 °F 22.5 °F 32.5 °F 100% 29.94 in 1.5 mi WNW 13.8 mph - N/A   Overcast
2:15 AM 32.4 °F 22.5 °F 32.5 °F 100% 29.94 in 5.0 mi WNW 13.8 mph - N/A   Overcast
2:35 AM 33.4 °F 25.4 °F 33.6 °F 100% 29.93 in 10.0 mi WNW 10.4 mph - N/A   Overcast
2:55 AM 34.7 °F 27.5 °F 31.8 °F 89% 29.93 in 10.0 mi West 9.2 mph - N/A   Overcast
3:14 AM 35.1 °F 26.4 °F 32.0 °F 89% 29.93 in 10.0 mi West 12.7 mph - N/A   Overcast
3:35 AM 35.4 °F 27.3 °F 32.4 °F 89% 29.91 in 10.0 mi West 11.5 mph - N/A   Mostly Cloudy
3:54 AM 34.7 °F 26.4 °F 32.5 °F 92% 29.91 in 10.0 mi West 11.5 mph - N/A   Mostly Cloudy
4:15 AM 34.0 °F 25.5 °F 32.4 °F 94% 29.91 in 10.0 mi West 11.5 mph - N/A   Mostly Cloudy
4:35 AM 33.4 °F 25.4 °F 32.0 °F 94% 29.90 in 7.0 mi West 10.4 mph - N/A   Scattered Clouds
4:55 AM 33.1 °F 23.9 °F 32.0 °F 96% 29.89 in 7.0 mi West 12.7 mph - N/A   Clear
5:15 AM 33.1 °F 23.0 °F 32.0 °F 96% 29.89 in 7.0 mi West 15.0 mph - N/A   Clear
5:35 AM 33.1 °F 23.4 °F 32.0 °F 96% 29.89 in 10.0 mi West 13.8 mph - N/A   Clear
5:55 AM 33.1 °F 23.0 °F 32.0 °F 96% 29.88 in 7.0 mi West 15.0 mph - N/A   Clear
6:15 AM 33.3 °F 22.8 °F 32.0 °F 95% 29.89 in 10.0 mi West 16.1 mph - N/A   Clear
6:35 AM 33.1 °F 23.0 °F 31.5 °F 94% 29.89 in 10.0 mi West 15.0 mph - N/A   Clear
6:55 AM 32.9 °F 23.2 °F 31.1 °F 93% 29.89 in 10.0 mi WNW 13.8 mph - N/A   Clear
7:15 AM 32.0 °F 24.2 °F 30.4 °F 94% 29.90 in 10.0 mi WNW 9.2 mph - N/A   Clear
7:35 AM 32.0 °F 23.0 °F 30.6 °F 94% 29.90 in 10.0 mi WNW 11.5 mph - N/A   Clear
7:55 AM 32.2 °F 22.3 °F 30.2 °F 92% 29.92 in 10.0 mi WNW 13.8 mph - N/A   Clear
8:15 AM 32.2 °F 20.4 °F 29.5 °F 90% 29.92 in 10.0 mi NW 19.6 mph 25.3 mph N/A   Mostly Cloudy
8:35 AM 32.0 °F 19.8 °F 28.6 °F 87% 29.93 in 10.0 mi NW 20.7 mph - N/A   Overcast
8:54 AM 32.0 °F 18.9 °F 27.9 °F 85% 29.93 in 10.0 mi NW 24.2 mph 31.1 mph N/A   Overcast
9:15 AM 32.0 °F 20.5 °F 28.4 °F 87% 29.94 in 10.0 mi NW 18.4 mph 29.9 mph N/A   Overcast
9:55 AM 32.0 °F 19.5 °F 28.2 °F 86% 29.95 in 10.0 mi NW 21.9 mph 29.9 mph N/A   Overcast
10:15 AM 32.0 °F 19.5 °F 27.7 °F 84% 29.96 in 10.0 mi NNW 21.9 mph 28.8 mph N/A   Overcast
10:35 AM 32.5 °F 19.9 °F 27.5 °F 82% 29.96 in 7.0 mi NNW 23.0 mph 31.1 mph N/A   Overcast
10:55 AM 32.9 °F 21.3 °F 26.6 °F 78% 29.97 in 10.0 mi NW 19.6 mph 28.8 mph N/A   Overcast
11:15 AM 32.0 °F 18.9 °F 27.3 °F 83% 29.97 in 10.0 mi NNW 24.2 mph 29.9 mph N/A   Overcast
11:35 AM 31.1 °F 19.3 °F 25.5 °F 80% 29.98 in 10.0 mi NNW 18.4 mph 29.9 mph N/A   Overcast
11:55 AM 31.8 °F 19.9 °F 24.6 °F 75% 29.99 in 10.0 mi NNW 19.6 mph 27.6 mph N/A   Overcast
12:15 PM 31.5 °F 19.4 °F 24.4 °F 75% 30.00 in 10.0 mi NNW 19.6 mph 25.3 mph N/A   Overcast
12:34 PM 31.3 °F 18.9 °F 23.4 °F 72% 30.00 in 10.0 mi NNW 20.7 mph 26.5 mph N/A   Overcast
12:55 PM 31.5 °F 19.1 °F 24.1 °F 74% 30.00 in 10.0 mi NW 20.7 mph 25.3 mph N/A   Overcast
1:15 PM 32.0 °F 20.1 °F 22.1 °F 67% 30.00 in 10.0 mi NNW 19.6 mph 28.8 mph N/A   Overcast
1:35 PM 33.1 °F 21.5 °F 21.7 °F 63% 30.00 in 10.0 mi NNW 19.6 mph 25.3 mph N/A   Overcast
1:55 PM 34.9 °F 24.2 °F 22.5 °F 61% 30.00 in 10.0 mi NNW 18.4 mph 26.5 mph N/A   Mostly Cloudy
2:15 PM 33.1 °F 21.5 °F 21.4 °F 62% 30.00 in 10.0 mi NW 19.6 mph 25.3 mph N/A   Overcast
2:35 PM 33.3 °F 20.9 °F 20.8 °F 60% 30.00 in 10.0 mi NNW 23.0 mph 29.9 mph N/A   Mostly Cloudy
2:55 PM 34.2 °F 22.6 °F 18.5 °F 53% 30.00 in 10.0 mi NNW 20.7 mph 29.9 mph N/A   Scattered Clouds
3:15 PM 33.8 °F 21.6 °F 17.6 °F 52% 30.00 in 10.0 mi NNW 23.0 mph 27.6 mph N/A   Scattered Clouds
3:35 PM 33.8 °F 22.5 °F 15.3 °F 47% 30.00 in 10.0 mi NNW 19.6 mph 27.6 mph N/A   Clear
3:55 PM 33.3 °F 22.5 °F 18.3 °F 54% 30.00 in 10.0 mi NNW 17.3 mph 25.3 mph N/A   Scattered Clouds
4:15 PM 32.9 °F 21.6 °F 16.0 °F 50% 30.01 in 10.0 mi NNW 18.4 mph 26.5 mph N/A   Scattered Clouds
4:35 PM 32.9 °F 21.6 °F 16.3 °F 51% 30.02 in 10.0 mi NNW 18.4 mph 25.3 mph N/A   Mostly Cloudy
4:55 PM 31.8 °F 19.6 °F 17.6 °F 56% 30.03 in 10.0 mi NNW 20.7 mph 26.5 mph N/A   Overcast
5:15 PM 31.1 °F 18.9 °F 18.3 °F 59% 30.03 in 10.0 mi NNW 19.6 mph 25.3 mph N/A   Overcast
5:34 PM 30.4 °F 17.7 °F 16.5 °F 56% 30.03 in 10.0 mi NNW 20.7 mph 25.3 mph N/A   Overcast
5:55 PM 30.2 °F 17.4 °F 18.7 °F 62% 30.04 in 10.0 mi NNW 20.7 mph 25.3 mph N/A   Overcast
6:15 PM 28.9 °F 16.5 °F 17.2 °F 62% 30.05 in 10.0 mi NNW 18.4 mph 26.5 mph N/A   Overcast
6:35 PM 28.6 °F 16.0 °F 16.9 °F 62% 30.05 in 10.0 mi NNW 18.4 mph 26.5 mph N/A   Overcast
7:15 PM 27.5 °F 14.2 °F 16.9 °F 64% 30.07 in 10.0 mi NNW 19.6 mph 26.5 mph N/A   Scattered Clouds
7:35 PM 26.4 °F 13.2 °F 17.6 °F 69% 30.08 in 10.0 mi NNW 18.4 mph 25.3 mph N/A   Scattered Clouds
7:55 PM 25.3 °F 11.4 °F 17.4 °F 72% 30.08 in 10.0 mi NNW 19.6 mph 26.5 mph N/A   Scattered Clouds
8:15 PM 24.8 °F 11.1 °F 14.9 °F 66% 30.09 in 10.0 mi NNW 18.4 mph 27.6 mph N/A   Scattered Clouds
8:35 PM 24.3 °F 10.8 °F 16.5 °F 72% 30.11 in 10.0 mi NNW 17.3 mph 23.0 mph N/A   Clear
8:55 PM 23.9 °F 9.9 °F 16.0 °F 72% 30.11 in 10.0 mi NNW 18.4 mph 24.2 mph N/A   Clear
9:15 PM 23.7 °F 8.9 °F 16.7 °F 75% 30.12 in 10.0 mi NNW 20.7 mph 24.2 mph N/A   Clear
9:35 PM 23.5 °F 9.4 °F 16.7 °F 75% 30.13 in 10.0 mi NNW 18.4 mph 24.2 mph N/A   Clear
9:55 PM 23.5 °F 9.4 °F 16.9 °F 76% 30.14 in 10.0 mi NNW 18.4 mph 23.0 mph N/A   Scattered Clouds
10:15 PM 23.0 °F 7.6 °F 17.6 °F 80% 30.14 in 10.0 mi NNW 21.9 mph 25.3 mph N/A   Scattered Clouds
10:34 PM 22.8 °F 8.9 °F 15.8 °F 74% 30.16 in 10.0 mi NNW 17.3 mph 27.6 mph N/A   Scattered Clouds
10:55 PM 22.8 °F 8.9 °F 15.1 °F 72% 30.16 in 10.0 mi NNW 17.3 mph 28.8 mph N/A   Scattered Clouds
11:15 PM 22.6 °F 8.7 °F 15.8 °F 75% 30.16 in 10.0 mi NNW 17.3 mph 23.0 mph N/A   Mostly Cloudy
11:35 PM 22.3 °F 8.7 °F 16.0 °F 77% 30.16 in 10.0 mi NNW 16.1 mph 20.7 mph N/A   Overcast
11:55 PM 22.6 °F 9.6 °F 15.3 °F 73% 30.17 in 10.0 mi NNW 15.0 mph 21.9 mph N/A   Overcast